Le Raizet Airport, Guadeloupe

4:55 PM AST on June 21, 2018 (GMT -0400)
Le Raizet

Weather History for TFFR - October, 2017

Change the Weather History Date:

Wednesday, October 25, 2017

  Actual Average Record
Temperature  
Mean Temperature 79 °F -  
Max Temperature 86 °F 84 °F 91 °F (1996)
Min Temperature 72 °F 71 °F 72 °F (2017)
Cooling Degree Days 14    
Growing Degree Days 29 (Base 50)    
Moisture  
Dew Point 72 °F    
Average Humidity 77    
Maximum Humidity 94    
Minimum Humidity 54    
Precipitation  
Precipitation 0.08 in 0.29 in - ()
Sea Level Pressure  
Sea Level Pressure 29.92 in    
Wind  
Wind Speed 6 mph ()    
Max Wind Speed 15 mph    
Max Gust Speed 21 mph    
Visibility 6.9 miles    
Events Rain    
Averages and records for this station are not official NWS values.
T = Trace of Precipitation, MM = Missing Value Source: Averaged Metar Reports

Daily Weather History Graph

Daily Weather History Graph

Search for Another Location

Airport or City:

Astronomy

Oct. 25, 2017 Rise Set
Actual Time 6:01 AM AST 5:38 PM AST
Civil Twilight 5:39 AM AST 6:00 PM AST
Nautical Twilight 5:13 AM AST 6:26 PM AST
Astronomical Twilight 4:48 AM AST 6:51 PM AST
Moon 10:44 AM AST (10/25) 10:18 PM AST (10/25)
Length of Visible Light 12h 21m
Length of Day
11h 37m
Waxing Crescent, 29% of the Moon is Illuminated
Oct 25
Waxing Crescent
Oct 27
First Quarter
Nov 4
Full
Nov 10
Last Quarter
Nov 18
New

Hourly Weather History & Observations

Time (AST) Temp. Heat Index Dew Point Humidity Pressure Visibility Wind Dir Wind Speed Gust Speed Precip Events Conditions
12:00 AM 77.0 °F - 73.4 °F 89% 29.92 in 6.2 mi ESE 4.6 mph - N/A   Partly Cloudy
12:30 AM 77.0 °F - 73.4 °F 89% 29.92 in 6.2 mi ESE 4.6 mph - N/A   Partly Cloudy
1:00 AM 75.2 °F - 71.6 °F 89% 29.92 in 6.2 mi ESE 3.5 mph - N/A   Scattered Clouds
1:30 AM 75.2 °F - 71.6 °F 89% 29.92 in 6.2 mi ESE 3.5 mph - N/A   Partly Cloudy
2:00 AM 76 °F - 72 °F 82% 29.91 in 22 mi ESE 3.5 mph - -   Clear
2:00 AM 75.2 °F - 71.6 °F 89% 29.89 in - ESE 3.5 mph - N/A   Clear
2:30 AM 75.2 °F - 71.6 °F 89% 29.89 in - ESE 4.6 mph - N/A   Clear
3:00 AM 75.2 °F - 71.6 °F 89% 29.89 in - ENE 3.5 mph - N/A   Clear
3:30 AM 75.2 °F - 71.6 °F 89% 29.89 in - East 2.3 mph - N/A   Clear
4:00 AM 73.4 °F - 71.6 °F 94% 29.89 in 6.2 mi East 1.2 mph - N/A   Partly Cloudy
4:30 AM 73.4 °F - 71.6 °F 94% 29.89 in - Calm Calm - N/A   Clear
5:00 AM 73 °F - 71 °F 89% 29.90 in 9 mi East 2.3 mph - -   Clear
5:00 AM 73.4 °F - 69.8 °F 88% 29.89 in - Variable 2.3 mph - N/A   Clear
5:30 AM 73.4 °F - 69.8 °F 88% 29.89 in 6.2 mi Variable 2.3 mph - N/A   Unknown
6:00 AM 75.2 °F - 71.6 °F 89% 29.92 in 6.2 mi ESE 8.1 mph 20.7 mph N/A Rain Heavy Rain
6:30 AM 75.2 °F - 71.6 °F 89% 29.92 in 6.2 mi East 4.6 mph - N/A   Mostly Cloudy
7:00 AM 77.0 °F - 73.4 °F 89% 29.92 in - ESE 3.5 mph - N/A   Clear
7:30 AM 80.6 °F 85.4 °F 73.4 °F 79% 29.92 in 6.2 mi ESE 5.8 mph - N/A   Unknown
8:00 AM 82 °F - 72 °F 65% 29.95 in 16 mi SE 9.2 mph - -   Clear
8:00 AM 82.4 °F 87.2 °F 71.6 °F 70% 29.95 in 6.2 mi SE 9.2 mph - N/A   Partly Cloudy
8:30 AM 82.4 °F 87.2 °F 71.6 °F 70% 29.95 in 6.2 mi SE 11.5 mph - N/A   Partly Cloudy
9:00 AM 82.4 °F 87.2 °F 71.6 °F 70% 29.95 in - ESE 13.8 mph - N/A   Clear
9:30 AM 84.2 °F 89.6 °F 71.6 °F 66% 29.95 in 6.2 mi ESE 12.7 mph - N/A   Mostly Cloudy
10:00 AM 84.2 °F 89.6 °F 71.6 °F 66% 29.95 in 6.2 mi SE 12.7 mph - N/A   Mostly Cloudy
10:30 AM 84.2 °F 89.6 °F 71.6 °F 66% 29.95 in 6.2 mi SE 15.0 mph - N/A   Mostly Cloudy
11:00 AM 85 °F - 71 °F 54% 29.95 in 19 mi SE 12.7 mph - -   Clear
11:00 AM 86.0 °F 91.8 °F 71.6 °F 62% 29.95 in 6.2 mi SE 12.7 mph - N/A   Scattered Clouds
11:30 AM 86.0 °F 91.8 °F 71.6 °F 62% 29.92 in 6.2 mi SE 12.7 mph - N/A   Mostly Cloudy
12:00 PM 86.0 °F 91.8 °F 71.6 °F 62% 29.92 in 6.2 mi SSE 12.7 mph - N/A   Mostly Cloudy
12:30 PM 86.0 °F 91.8 °F 71.6 °F 62% 29.92 in 6.2 mi South 10.4 mph - N/A   Mostly Cloudy
1:00 PM 86.0 °F 91.8 °F 71.6 °F 62% 29.89 in 6.2 mi SE 12.7 mph - N/A   Scattered Clouds
1:30 PM 86.0 °F 91.8 °F 71.6 °F 62% 29.89 in 6.2 mi SE 13.8 mph - N/A   Scattered Clouds
2:00 PM 85 °F - 71 °F 55% 29.90 in 34 mi ESE 12.7 mph - -   Clear
2:00 PM 86.0 °F 91.8 °F 71.6 °F 62% 29.89 in 6.2 mi ESE 12.7 mph - N/A   Mostly Cloudy
2:30 PM 84.2 °F 89.6 °F 71.6 °F 66% 29.89 in 6.2 mi ESE 13.8 mph - N/A   Mostly Cloudy
3:00 PM 84.2 °F 89.6 °F 71.6 °F 66% 29.89 in 6.2 mi ESE 13.8 mph - N/A   Mostly Cloudy
3:30 PM 84.2 °F 88.4 °F 69.8 °F 62% 29.89 in 6.2 mi SE 12.7 mph - N/A   Partly Cloudy
4:00 PM 84.2 °F 88.4 °F 69.8 °F 62% 29.89 in 6.2 mi ESE 11.5 mph - N/A   Partly Cloudy
4:30 PM 84.2 °F 88.4 °F 69.8 °F 62% 29.89 in 6.2 mi ESE 10.4 mph - N/A   Mostly Cloudy
5:00 PM 82 °F - 71 °F 62% 29.90 in 25 mi ESE 10.4 mph - -   Clear
5:00 PM 82.4 °F 87.2 °F 71.6 °F 70% 29.89 in 6.2 mi ESE 10.4 mph - N/A   Partly Cloudy
5:30 PM 80.6 °F 83.9 °F 69.8 °F 70% 29.89 in 6.2 mi ESE 9.2 mph - N/A   Partly Cloudy
6:00 PM 80.6 °F 83.9 °F 69.8 °F 70% 29.89 in - ESE 5.8 mph - N/A   Clear
6:30 PM 80.6 °F 84.6 °F 71.6 °F 74% 29.89 in 6.2 mi ENE 4.6 mph - N/A   Mostly Cloudy
7:00 PM 80.6 °F 84.6 °F 71.6 °F 74% 29.92 in 6.2 mi East 4.6 mph - N/A   Partly Cloudy
7:30 PM 78.8 °F - 71.6 °F 78% 29.92 in 6.2 mi East 5.8 mph - N/A   Unknown
8:00 PM 77 °F - 73 °F 83% 29.95 in 2 mi East 8.1 mph - -   Mist
8:00 PM 77.0 °F - 73.4 °F 89% 29.95 in - East 8.1 mph - N/A   Mostly Cloudy
8:30 PM 77.0 °F - 73.4 °F 89% 29.95 in - East 4.6 mph - N/A   Clear
9:00 PM 77.0 °F - 73.4 °F 89% 29.95 in - East 5.8 mph - N/A   Clear
9:30 PM 77.0 °F - 73.4 °F 89% 29.95 in - East 3.5 mph - N/A   Clear
10:00 PM 77.0 °F - 73.4 °F 89% 29.95 in - East 3.5 mph - N/A   Clear
10:30 PM 77.0 °F - 71.6 °F 83% 29.95 in 6.2 mi Variable 3.5 mph - N/A   Scattered Clouds
11:00 PM 76 °F - 72 °F 84% 29.95 in 11 mi NE 2.3 mph - -   Clear
11:00 PM 75.2 °F - 71.6 °F 89% 29.95 in - NE 2.3 mph - N/A   Clear
11:30 PM 75.2 °F - 71.6 °F 89% 29.95 in 6.2 mi Calm Calm - N/A   Partly Cloudy